| time (UTC) | temp C | wind direction | speed KPH | gust KPH | rain 1hr cm | rain 24hr cm | rain mn cm | humidity % | barometer mb |
| 20260506103000 | 15 | 185 | 1.6 | 3.2 | 0.00 | 0.00 | 0.00 | 89 | 1009.5 |
| 20260506101500 | 14 | 5 | 0.0 | 3.2 | 0.00 | 0.00 | 0.00 | 88 | 1009.2 |
| 20260506100000 | 14 | 40 | 0.0 | 1.6 | 0.00 | 0.00 | 0.00 | 87 | 1009.1 |
| 20260506094500 | 14 | 325 | 0.0 | 1.6 | 0.00 | 0.00 | 0.00 | 86 | 1009.4 |
| 20260506093000 | 14 | 327 | 0.0 | 1.6 | 0.00 | 0.00 | 0.00 | 86 | 1009.3 |
| 20260506091500 | 15 | 293 | 0.0 | 1.6 | 0.00 | 0.00 | 0.00 | 84 | 1009.4 |
| 20260506090000 | 15 | 304 | 1.6 | 3.2 | 0.00 | 0.00 | 0.00 | 83 | 1009.4 |
| 20260506084500 | 15 | 297 | 0.0 | 1.6 | 0.00 | 0.00 | 0.00 | 82 | 1009.5 |
| 20260506083000 | 15 | 319 | 1.6 | 3.2 | 0.00 | 0.00 | 0.00 | 80 | 1009.5 |
| 20260506081500 | 16 | 25 | 0.0 | 1.6 | 0.00 | 0.00 | 0.00 | 79 | 1009.6 |
| 20260506073000 | 18 | 5 | 3.2 | 4.8 | 0.00 | 0.00 | 0.00 | 70 | 1009.4 |
| 20260506071500 | 18 | 265 | 1.6 | 3.2 | 0.00 | 0.00 | 0.00 | 69 | 1009.6 |
| 20260506061500 | 19 | 218 | 3.2 | 4.8 | 0.00 | 0.00 | 0.00 | 68 | 1009.6 |
| 20260506044500 | 20 | 276 | 1.6 | 4.8 | 0.00 | 0.00 | 0.00 | 62 | 1010.1 |
| 20260506043000 | 20 | 273 | 0.0 | 3.2 | 0.00 | 0.00 | 0.00 | 63 | 1010.1 |
| 20260506041500 | 20 | 230 | 0.0 | 1.6 | 0.00 | 0.00 | 0.00 | 63 | 1010.1 |
| 20260506040000 | 20 | 216 | 1.6 | 3.2 | 0.00 | 0.00 | 0.15 | 61 | 1009.9 |
| 20260506034500 | 20 | 254 | 1.6 | 3.2 | 0.00 | 0.00 | 0.15 | 61 | 1010.0 |
| 20260506033000 | 20 | 275 | 0.0 | 3.2 | 0.00 | 0.00 | 0.15 | 61 | 1010.0 |
| 20260506031500 | 20 | 208 | 1.6 | 3.2 | 0.00 | 0.00 | 0.15 | 61 | 1009.8 |
| 20260506030000 | 20 | 250 | 1.6 | 4.8 | 0.00 | 0.00 | 0.15 | 62 | 1009.7 |
| 20260506024500 | 20 | 233 | 1.6 | 3.2 | 0.00 | 0.00 | 0.15 | 61 | 1009.6 |
| 20260506023000 | 20 | 292 | 0.0 | 1.6 | 0.00 | 0.00 | 0.15 | 61 | 1009.8 |
| 20260506021500 | 19 | 207 | 1.6 | 4.8 | 0.00 | 0.00 | 0.15 | 61 | 1009.7 |
| 20260506020000 | 19 | 222 | 0.0 | 1.6 | 0.00 | 0.00 | 0.15 | 62 | 1009.6 |
| 20260506014500 | 19 | 252 | 0.0 | 1.6 | 0.00 | 0.00 | 0.15 | 63 | 1009.6 |
| 20260506013000 | 20 | 298 | 0.0 | 3.2 | 0.00 | 0.00 | 0.15 | 60 | 1009.3 |
| 20260506011500 | 21 | 331 | 1.6 | 4.8 | 0.00 | 0.00 | 0.15 | 57 | 1009.0 |
| 20260506010000 | 22 | 116 | 0.0 | 3.2 | 0.00 | 0.00 | 0.15 | 52 | 1008.8 |
| 20260506004500 | 23 | 207 | 1.6 | 3.2 | 0.00 | 0.00 | 0.15 | 45 | 1008.5 |
| 20260506003000 | 23 | 217 | 1.6 | 3.2 | 0.00 | 0.00 | 0.15 | 42 | 1008.3 |
| 20260506001500 | 24 | 132 | 0.0 | 3.2 | 0.00 | 0.00 | 0.15 | 41 | 1008.2 |
| 20260506000000 | 25 | 153 | 1.6 | 6.4 | 0.00 | 0.00 | 0.15 | 38 | 1008.0 |
| 20260505234500 | 25 | 192 | 4.8 | 9.7 | 0.00 | 0.00 | 0.15 | 37 | 1007.8 |
| 20260505233000 | 25 | 190 | 4.8 | 8.0 | 0.00 | 0.00 | 0.15 | 35 | 1007.7 |
| 20260505231500 | 26 | 173 | 3.2 | 8.0 | 0.00 | 0.00 | 0.15 | 34 | 1007.5 |
| 20260505230000 | 26 | 131 | 4.8 | 9.7 | 0.00 | 0.00 | 0.15 | 34 | 1007.2 |
| 20260505224500 | 26 | 137 | 6.4 | 12.9 | 0.00 | 0.00 | 0.15 | 33 | 1006.9 |
| 20260505223000 | 26 | 141 | 4.8 | 9.7 | 0.00 | 0.00 | 0.15 | 33 | 1007.0 |
| 20260505221500 | 27 | 174 | 8.0 | 14.5 | 0.00 | 0.00 | 0.15 | 34 | 1006.9 |
| 20260505220000 | 27 | 133 | 6.4 | 11.3 | 0.00 | 0.00 | 0.15 | 34 | 1007.0 |
| 20260505214500 | 27 | 193 | 4.8 | 8.0 | 0.00 | 0.00 | 0.15 | 33 | 1006.9 |
| 20260505213000 | 27 | 272 | 3.2 | 6.4 | 0.00 | 0.00 | 0.15 | 35 | 1006.5 |
| 20260505211500 | 26 | 183 | 3.2 | 8.0 | 0.00 | 0.00 | 0.15 | 37 | 1006.5 |
| 20260505210000 | 25 | 183 | 6.4 | 14.5 | 0.00 | 0.00 | 0.15 | 37 | 1006.4 |
| 20260505204500 | 25 | 238 | 3.2 | 6.4 | 0.00 | 0.00 | 0.15 | 46 | 1006.7 |
| 20260505203000 | 25 | 184 | 3.2 | 4.8 | 0.00 | 0.00 | 0.15 | 47 | 1007.0 |
| 20260505201500 | 25 | 206 | 4.8 | 9.7 | 0.00 | 0.00 | 0.15 | 47 | 1007.0 |
| 20260505200000 | 26 | 243 | 3.2 | 6.4 | 0.00 | 0.00 | 0.15 | 44 | 1007.1 |
| 20260505194500 | 25 | 213 | 3.2 | 6.4 | 0.00 | 0.00 | 0.15 | 48 | 1007.2 |
| 20260505193000 | 26 | 174 | 4.8 | 8.0 | 0.00 | 0.00 | 0.15 | 49 | 1007.5 |
| 20260505191500 | 27 | 183 | 3.2 | 6.4 | 0.00 | 0.00 | 0.15 | 45 | 1007.4 |
| 20260505190000 | 26 | 253 | 1.6 | 3.2 | 0.00 | 0.00 | 0.15 | 44 | 1007.6 |
| 20260505184500 | 26 | 270 | 4.8 | 8.0 | 0.00 | 0.00 | 0.15 | 46 | 1007.9 |
| 20260505183000 | 26 | 236 | 3.2 | 4.8 | 0.00 | 0.00 | 0.15 | 47 | 1008.1 |
| 20260505181500 | 26 | 178 | 3.2 | 4.8 | 0.00 | 0.00 | 0.15 | 49 | 1008.3 |
| 20260505180000 | 26 | 224 | 3.2 | 6.4 | 0.00 | 0.00 | 0.15 | 47 | 1008.4 |
| 20260505174500 | 25 | 164 | 3.2 | 8.0 | 0.00 | 0.00 | 0.15 | 48 | 1008.4 |
| 20260505173000 | 25 | 231 | 3.2 | 6.4 | 0.00 | 0.00 | 0.15 | 48 | 1008.6 |
| 20260505171500 | 25 | 199 | 4.8 | 12.9 | 0.00 | 0.00 | 0.15 | 50 | 1008.7 |
| 20260505170000 | 26 | 216 | 4.8 | 6.4 | 0.00 | 0.00 | 0.15 | 49 | 1008.8 |
| 20260505164500 | 26 | 171 | 4.8 | 8.0 | 0.00 | 0.00 | 0.15 | 48 | 1009.0 |
| 20260505163000 | 26 | 160 | 3.2 | 6.4 | 0.00 | 0.00 | 0.15 | 49 | 1009.3 |
| 20260505161500 | 26 | 228 | 3.2 | 8.0 | 0.00 | 0.00 | 0.15 | 47 | 1009.4 |
| 20260505153000 | 24 | 176 | 1.6 | 4.8 | 0.00 | 0.00 | 0.15 | 51 | 1010.0 |
| 20260505151500 | 23 | 167 | 3.2 | 9.7 | 0.00 | 0.00 | 0.15 | 51 | 1010.1 |
| 20260505124500 | 16 | 103 | 3.2 | 4.8 | 0.13 | 0.00 | 0.13 | 82 | 1010.5 |
| 20260505123000 | 14 | 104 | 3.2 | 3.2 | 0.13 | 0.00 | 0.13 | 91 | 1010.7 |
| 20260505121500 | 13 | 16 | 1.6 | 1.6 | 0.15 | 0.00 | 0.15 | 93 | 1010.6 |
| 20260505120000 | 13 | 350 | 1.6 | 1.6 | 0.15 | 0.00 | 0.15 | 91 | 1010.1 |
| 20260505114500 | 13 | 355 | 4.8 | 6.4 | 0.00 | 0.00 | 0.13 | 85 | 1010.1 |
| 20260505113000 | 15 | 316 | 0.0 | 3.2 | 0.00 | 0.00 | 0.00 | 77 | 1011.2 |
| 20260505111500 | 14 | 262 | 0.0 | 1.6 | 0.00 | 0.00 | 0.00 | 78 | 1011.0 |